Location: Alfortville
(48.8058°N, 2.4204°E)
Time: 19:19:43
(UTC+00:00)

ARIANE 6 FM1 Upper Stage - Visible Passes

Search period start: 12 December 2025 00:00
Search period end: 22 December 2025 00:00
Orbit: 522 x 611 km, 62.0° (Epoch: 12 December)

Date Brightness Start Highest point End Pass type
(mag) Time Alt. Az. Time Alt. Az. Time Alt. Az.
12 Dec 5.1 06:33:37 10° S 06:37:04 27° ESE 06:40:28 10° ENE visible
13 Dec 4.2 06:33:37 10° SSW 06:37:23 39° SE 06:41:07 10° ENE visible
14 Dec 3.3 06:33:47 10° SSW 06:37:44 56° SE 06:41:39 10° NE visible
15 Dec 5.9 04:58:30 10° SE 04:59:44 11° ESE 05:00:57 10° E visible
15 Dec 2.7 06:34:05 10° SW 06:38:07 81° SE 06:42:06 10° NE visible
16 Dec 5.5 04:57:23 10° SSE 04:59:56 16° ESE 05:02:28 10° ENE visible
16 Dec 2.5 06:34:29 10° SW 06:38:30 73° NW 06:42:29 10° NE visible
17 Dec 4.9 04:56:56 10° S 05:00:09 23° ESE 05:03:20 10° ENE visible
17 Dec 2.7 06:35:00 10° WSW 06:38:57 52° NW 06:42:51 10° NE visible
18 Dec 4.2 04:58:10 19° S 05:00:25 33° SE 05:04:00 10° ENE visible
18 Dec 3.0 06:35:36 10° WSW 06:39:23 39° NW 06:43:09 10° NE visible
19 Dec 3.5 05:00:02 42° SSE 05:00:42 47° SE 05:04:32 10° NE visible
19 Dec 3.4 06:36:17 10° W 06:39:52 31° NNW 06:43:26 10° NNE visible
20 Dec 2.9 05:01:26 62° E 05:01:26 62° E 05:04:58 10° NE visible
20 Dec 3.7 06:37:30 12° W 06:40:22 25° NNW 06:43:42 10° NNE visible
21 Dec 3.3 05:02:30 45° NE 05:02:30 45° NE 05:05:20 10° NE visible
21 Dec 4.0 06:38:34 13° WNW 06:40:54 21° NNW 06:43:57 10° NNE visible
